Stündliche Wetter Abakanovo

Heute, 22 Juni, Dienstag

Zeit Temperatur Niederschläge Wind Luftdruck Luftfeuchtigkeit
00:00 +20°C° 0 mm 2 m/S 741 mmHg 83%
01:00 +19°C° 0 mm 2 m/S 741 mmHg 86%
02:00 +19°C° 0 mm 2 m/S 742 mmHg 90%
03:00 +19°C° 0 mm 2 m/S 742 mmHg 89%
04:00 +20°C° 0 mm 2 m/S 742 mmHg 89%
05:00 +21°C° 0 mm 2 m/S 742 mmHg 88%
06:00 +24°C° 0 mm 2 m/S 742 mmHg 79%
07:00 +26°C° 0 mm 3 m/S 742 mmHg 71%
08:00 +28°C° 0 mm 3 m/S 742 mmHg 62%
09:00 +29°C° 0 mm 4 m/S 742 mmHg 54%
10:00 +32°C° 0 mm 4 m/S 742 mmHg 46%
11:00 +33°C° 0 mm 4 m/S 742 mmHg 37%
12:00 +34°C° 0 mm 4 m/S 742 mmHg 34%
13:00 +34°C° 0 mm 4 m/S 742 mmHg 31%
14:00 +35°C° 0 mm 4 m/S 741 mmHg 28%
15:00 +34°C° 0 mm 4 m/S 741 mmHg 30%
16:00 +34°C° 0 mm 4 m/S 741 mmHg 33%
17:00 +33°C° 0 mm 3 m/S 741 mmHg 35%
18:00 +30°C° 0 mm 3 m/S 741 mmHg 46%
19:00 +27°C° 0 mm 2 m/S 741 mmHg 56%
20:00 +25°C° 0 mm 2 m/S 741 mmHg 67%
21:00 +24°C° 0 mm 2 m/S 741 mmHg 69%
22:00 +23°C° 0 mm 2 m/S 741 mmHg 72%
23:00 +21°C° 0 mm 2 m/S 741 mmHg 74%

Morgen, 23 Juni, Mittwoch

Zeit Temperatur Niederschläge Wind Luftdruck Luftfeuchtigkeit
00:00 +20°C° 0 mm 2 m/S 742 mmHg 77%
01:00 +20°C° 0 mm 2 m/S 742 mmHg 79%
02:00 +19°C° 0 mm 2 m/S 742 mmHg 82%
03:00 +20°C° 0 mm 2 m/S 742 mmHg 82%
04:00 +20°C° 0 mm 2 m/S 742 mmHg 83%
05:00 +21°C° 0 mm 2 m/S 742 mmHg 83%
06:00 +24°C° 0 mm 2 m/S 742 mmHg 75%
07:00 +26°C° 0 mm 2 m/S 743 mmHg 67%
08:00 +28°C° 0 mm 3 m/S 743 mmHg 59%
09:00 +30°C° 0 mm 3 m/S 743 mmHg 50%
10:00 +31°C° 0 mm 3 m/S 743 mmHg 42%
11:00 +34°C° 0 mm 4 m/S 743 mmHg 33%
12:00 +34°C° 0 mm 4 m/S 743 mmHg 31%
13:00 +35°C° 0 mm 4 m/S 742 mmHg 30%
14:00 +36°C° 0 mm 4 m/S 742 mmHg 28%
15:00 +35°C° 0 mm 3 m/S 742 mmHg 31%
16:00 +35°C° 0 mm 3 m/S 742 mmHg 34%
17:00 +34°C° 0 mm 3 m/S 742 mmHg 36%
18:00 +31°C° 0 mm 2 m/S 742 mmHg 47%
19:00 +29°C° 0 mm 2 m/S 742 mmHg 58%
20:00 +26°C° 0 mm 1 m/S 742 mmHg 69%
21:00 +25°C° 0 mm 1 m/S 742 mmHg 73%
22:00 +25°C° 0 mm 1 m/S 742 mmHg 77%
23:00 +24°C° 0 mm 1 m/S 742 mmHg 81%

übermorgen, 24 Juni, Donnerstag

Zeit Temperatur Niederschläge Wind Luftdruck Luftfeuchtigkeit
00:00 +23°C° 0 mm 2 m/S 742 mmHg 83%
01:00 +23°C° 0 mm 2 m/S 742 mmHg 86%
02:00 +21°C° 0 mm 2 m/S 742 mmHg 88%
03:00 +23°C° 0 mm 2 m/S 742 mmHg 86%
04:00 +23°C° 0 mm 2 m/S 742 mmHg 84%
05:00 +24°C° 0 mm 1 m/S 742 mmHg 82%
06:00 +26°C° 0 mm 2 m/S 742 mmHg 74%
07:00 +28°C° 0 mm 2 m/S 742 mmHg 65%
08:00 +30°C° 0 mm 2 m/S 742 mmHg 57%
09:00 +31°C° 0 mm 2 m/S 742 mmHg 50%
10:00 +32°C° 0 mm 2 m/S 742 mmHg 44%
11:00 +35°C° 0 mm 3 m/S 742 mmHg 38%
12:00 +35°C° 0 mm 3 m/S 742 mmHg 36%
13:00 +36°C° 0 mm 2 m/S 742 mmHg 34%
14:00 +36°C° 0 mm 2 m/S 741 mmHg 32%
15:00 +36°C° 0 mm 3 m/S 741 mmHg 34%
16:00 +35°C° 0 mm 3 m/S 741 mmHg 35%
17:00 +35°C° 0 mm 3 m/S 740 mmHg 37%
18:00 +33°C° 0 mm 3 m/S 740 mmHg 46%
19:00 +29°C° 0 mm 2 m/S 740 mmHg 55%
20:00 +27°C° 0 mm 2 m/S 740 mmHg 64%
21:00 +25°C° 0.1 mm 2 m/S 740 mmHg 72%
22:00 +23°C° 0.1 mm 1 m/S 740 mmHg 80%
23:00 +21°C° 0.1 mm 1 m/S 741 mmHg 88%

25 Juni, Freitag

Zeit Temperatur Niederschläge Wind Luftdruck Luftfeuchtigkeit
00:00 +20°C° 0 mm 2 m/S 740 mmHg 91%
01:00 +19°C° 0 mm 2 m/S 740 mmHg 94%
02:00 +19°C° 0 mm 2 m/S 740 mmHg 96%
03:00 +19°C° 0 mm 2 m/S 740 mmHg 94%
04:00 +20°C° 0 mm 2 m/S 739 mmHg 91%
05:00 +21°C° 0 mm 2 m/S 739 mmHg 88%
06:00 +24°C° 0 mm 2 m/S 739 mmHg 80%
07:00 +26°C° 0 mm 2 m/S 739 mmHg 72%
08:00 +28°C° 0 mm 2 m/S 740 mmHg 63%
09:00 +29°C° 0.4 mm 2 m/S 740 mmHg 60%
10:00 +30°C° 0.4 mm 2 m/S 740 mmHg 57%
11:00 +31°C° 0.4 mm 2 m/S 740 mmHg 54%
12:00 +31°C° 0.2 mm 2 m/S 739 mmHg 52%
13:00 +31°C° 0.2 mm 3 m/S 739 mmHg 51%
14:00 +31°C° 0.2 mm 3 m/S 739 mmHg 49%
15:00 +29°C° 0.9 mm 3 m/S 739 mmHg 56%
16:00 +27°C° 0.9 mm 3 m/S 738 mmHg 63%
17:00 +25°C° 0.9 mm 2 m/S 738 mmHg 71%
18:00 +24°C° 1 mm 2 m/S 738 mmHg 78%
19:00 +21°C° 1 mm 2 m/S 738 mmHg 86%
20:00 +20°C° 1 mm 1 m/S 738 mmHg 94%
21:00 +20°C° 0.1 mm 1 m/S 738 mmHg 95%
22:00 +20°C° 0.1 mm 1 m/S 738 mmHg 96%
23:00 +19°C° 0.1 mm 1 m/S 738 mmHg 96%

26 Juni, Samstag

Zeit Temperatur Niederschläge Wind Luftdruck Luftfeuchtigkeit
00:00 +19°C° 0.1 mm 1 m/S 738 mmHg 97%
01:00 +19°C° 0.1 mm 1 m/S 738 mmHg 97%
02:00 +19°C° 0.1 mm 1 m/S 738 mmHg 97%
03:00 +20°C° 0 mm 1 m/S 738 mmHg 96%
04:00 +20°C° 0 mm 1 m/S 738 mmHg 95%
05:00 +21°C° 0 mm 1 m/S 738 mmHg 94%
06:00 +22°C° 0 mm 1 m/S 738 mmHg 86%
07:00 +24°C° 0 mm 1 m/S 738 mmHg 78%
08:00 +26°C° 0 mm 1 m/S 738 mmHg 70%
09:00 +26°C° 0 mm 0 m/S 738 mmHg 63%
10:00 +27°C° 0 mm 0 m/S 738 mmHg 56%
11:00 +29°C° 0 mm 0 m/S 738 mmHg 49%
12:00 +30°C° 0 mm 0 m/S 738 mmHg 47%
13:00 +30°C° 0 mm 0 m/S 738 mmHg 44%
14:00 +33°C° 0 mm 1 m/S 738 mmHg 42%
15:00 +32°C° 0 mm 1 m/S 738 mmHg 47%
16:00 +30°C° 0 mm 1 m/S 738 mmHg 52%
17:00 +29°C° 0 mm 2 m/S 738 mmHg 57%
18:00 +27°C° 0.3 mm 2 m/S 738 mmHg 66%
19:00 +26°C° 0.3 mm 1 m/S 738 mmHg 75%
20:00 +24°C° 0.3 mm 1 m/S 738 mmHg 84%
21:00 +23°C° 1.3 mm 1 m/S 738 mmHg 86%
22:00 +22°C° 1.3 mm 1 m/S 738 mmHg 88%
23:00 +21°C° 1.3 mm 2 m/S 738 mmHg 91%

27 Juni, Sonntag

Zeit Temperatur Niederschläge Wind Luftdruck Luftfeuchtigkeit
00:00 +21°C° 0 mm 1 m/S 738 mmHg 92%
01:00 +21°C° 0 mm 1 m/S 738 mmHg 93%
02:00 +20°C° 0 mm 1 m/S 739 mmHg 93%
03:00 +21°C° 0 mm 1 m/S 739 mmHg 92%
04:00 +21°C° 0 mm 1 m/S 739 mmHg 91%
05:00 +20°C° 0 mm 2 m/S 739 mmHg 91%
06:00 +23°C° 0 mm 2 m/S 740 mmHg 81%
07:00 +25°C° 0 mm 2 m/S 740 mmHg 71%
08:00 +27°C° 0 mm 2 m/S 740 mmHg 62%
09:00 +28°C° 0 mm 2 m/S 740 mmHg 56%
10:00 +29°C° 0 mm 2 m/S 740 mmHg 50%
11:00 +31°C° 0 mm 3 m/S 740 mmHg 44%
12:00 +31°C° 0 mm 3 m/S 740 mmHg 42%
13:00 +31°C° 0 mm 2 m/S 740 mmHg 41%
14:00 +32°C° 0 mm 2 m/S 740 mmHg 39%
15:00 +31°C° 0 mm 2 m/S 740 mmHg 44%
16:00 +29°C° 0 mm 2 m/S 740 mmHg 49%
17:00 +28°C° 0 mm 2 m/S 740 mmHg 54%
18:00 +27°C° 0 mm 2 m/S 740 mmHg 58%
19:00 +25°C° 0 mm 2 m/S 740 mmHg 62%
20:00 +24°C° 0 mm 2 m/S 740 mmHg 66%
21:00 +23°C° 0 mm 2 m/S 740 mmHg 67%
22:00 +20°C° 0 mm 2 m/S 740 mmHg 68%
23:00 +19°C° 0 mm 2 m/S 740 mmHg 69%
Mehr zeigen

Wir brauchen deine Erlaubnis

Meteoprog und unser Service Anbieter werden persönliche Daten aufbewahren, so wie Cookies, Geräte Bezeichnung oder ähnliche Technologien von deinem Gerät und Prozess, so wie Persönliche Daten Inhalte und Werbungen, genauso wie social Media und den Verkehr zu analysieren.

  • Aufbewahrung und/oder Zugang zu deiner Geräte Informationen.

    Cookies, Geräte Bezeichnung oder andere Informationen, können aufbewahrt oder Zugang zu deinem Gerät erhalten, für den Grund, der oben angegeben wird.

  • Personalisierte Werbung und Inhalte, Messungen, Einblick in das Publikum und Produkt Entwicklung.

    Werbungen und Inhalte können personalisiert werden, basierend auf ein Profil. Mehr Daten können besser personalisierte Werbungen und Inhalte hinzufügen. Werbung und Inhalte können gezeigt und gemessen werden. Einblicke über das Publikum, welche die Werbung gesehen haben und den Inhalt, können abgeleitet werden. So wie Daten können genutzt werden, um es zu verbessern oder die Benutzer Erfahrung zu verbessern das System und die Software.

Wenn du “Ich stimme zu” klickst, erlaubst du uns, die Cookies zu benutzen die Geräte Bezeichnung, den Web oder ähnliche Technologien zu benutzen. Deine Settings, können in deinem Gerät bei deinem Browser geändert werden.

Für den bestimmten Zweck, berechtigten Interessen beruhen darauf, mehr als auf den Inhalt. Du kannst mehr darüber in unseren Privaten und Cookie Politik lesen.